• In Deutschland
  • Länderverzeichnis
  • Für 7 Tage
  • Wassertemperatur
  • Satellitenkarten
  • Wetterkarte
  • Widgets
  • user-avatar
    Anmelden

    Stündliche Wetter Trypolis

    Heute, 17 Januar, Mittwoch

    Zeit Temperatur Niederschläge Wind Luftdruck Luftfeuchtigkeit
    00:00 +13°C° 0 mm 2 m/S 768 mmHg 58%
    01:00 +13°C° 0 mm 2 m/S 767 mmHg 57%
    02:00 +13°C° 0 mm 2 m/S 767 mmHg 54%
    03:00 +12°C° 0 mm 3 m/S 767 mmHg 51%
    04:00 +12°C° 0 mm 3 m/S 766 mmHg 48%
    05:00 +11°C° 0 mm 4 m/S 766 mmHg 46%
    06:00 +11°C° 0 mm 4 m/S 766 mmHg 44%
    07:00 +10°C° 0 mm 5 m/S 766 mmHg 42%
    08:00 +13°C° 0 mm 5 m/S 766 mmHg 37%
    09:00 +15°C° 0 mm 6 m/S 766 mmHg 32%
    10:00 +17°C° 0 mm 6 m/S 766 mmHg 27%
    11:00 +19°C° 0 mm 6 m/S 765 mmHg 24%
    12:00 +20°C° 0 mm 7 m/S 765 mmHg 22%
    13:00 +21°C° 0 mm 7 m/S 764 mmHg 20%
    14:00 +21°C° 0 mm 7 m/S 764 mmHg 20%
    15:00 +21°C° 0 mm 6 m/S 764 mmHg 20%
    16:00 +21°C° 0 mm 6 m/S 763 mmHg 20%
    17:00 +20°C° 0 mm 6 m/S 764 mmHg 24%
    18:00 +17°C° 0 mm 5 m/S 764 mmHg 28%
    19:00 +15°C° 0 mm 4 m/S 764 mmHg 32%
    20:00 +15°C° 0 mm 4 m/S 764 mmHg 35%
    21:00 +14°C° 0 mm 4 m/S 765 mmHg 38%
    22:00 +14°C° 0 mm 4 m/S 765 mmHg 41%
    23:00 +14°C° 0 mm 4 m/S 765 mmHg 44%

    Morgen, 18 Januar, Donnerstag

    Zeit Temperatur Niederschläge Wind Luftdruck Luftfeuchtigkeit
    00:00 +13°C° 0 mm 5 m/S 765 mmHg 47%
    01:00 +13°C° 0 mm 5 m/S 766 mmHg 50%
    02:00 +13°C° 0 mm 5 m/S 766 mmHg 54%
    03:00 +11°C° 0 mm 6 m/S 766 mmHg 59%
    04:00 +11°C° 0 mm 6 m/S 766 mmHg 63%
    05:00 +11°C° 0 mm 6 m/S 766 mmHg 68%
    06:00 +11°C° 0 mm 6 m/S 767 mmHg 73%
    07:00 +13°C° 0 mm 6 m/S 767 mmHg 78%
    08:00 +14°C° 0 mm 6 m/S 768 mmHg 72%
    09:00 +15°C° 0 mm 7 m/S 768 mmHg 66%
    10:00 +16°C° 0 mm 7 m/S 769 mmHg 60%
    11:00 +16°C° 0 mm 6 m/S 768 mmHg 56%
    12:00 +17°C° 0 mm 6 m/S 768 mmHg 52%
    13:00 +17°C° 0 mm 5 m/S 768 mmHg 49%
    14:00 +17°C° 0 mm 5 m/S 768 mmHg 50%
    15:00 +18°C° 0 mm 4 m/S 768 mmHg 51%
    16:00 +18°C° 0 mm 4 m/S 767 mmHg 53%
    17:00 +17°C° 0 mm 3 m/S 768 mmHg 57%
    18:00 +16°C° 0 mm 3 m/S 768 mmHg 62%
    19:00 +14°C° 0 mm 3 m/S 768 mmHg 67%
    20:00 +13°C° 0 mm 3 m/S 768 mmHg 69%
    21:00 +13°C° 0 mm 3 m/S 768 mmHg 71%
    22:00 +12°C° 0 mm 3 m/S 768 mmHg 73%
    23:00 +12°C° 0 mm 3 m/S 767 mmHg 74%

    übermorgen, 19 Januar, Freitag

    Zeit Temperatur Niederschläge Wind Luftdruck Luftfeuchtigkeit
    00:00 +12°C° 0 mm 3 m/S 767 mmHg 76%
    01:00 +11°C° 0 mm 3 m/S 767 mmHg 77%
    02:00 +11°C° 0 mm 3 m/S 766 mmHg 78%
    03:00 +11°C° 0 mm 3 m/S 766 mmHg 79%
    04:00 +11°C° 0 mm 4 m/S 765 mmHg 80%
    05:00 +11°C° 0 mm 4 m/S 765 mmHg 80%
    06:00 +10°C° 0 mm 4 m/S 765 mmHg 80%
    07:00 +10°C° 0 mm 4 m/S 765 mmHg 81%
    08:00 +12°C° 0 mm 4 m/S 765 mmHg 73%
    09:00 +14°C° 0 mm 4 m/S 765 mmHg 65%
    10:00 +17°C° 0 mm 4 m/S 765 mmHg 57%
    11:00 +18°C° 0 mm 3 m/S 764 mmHg 51%
    12:00 +19°C° 0 mm 3 m/S 764 mmHg 45%
    13:00 +21°C° 0 mm 2 m/S 763 mmHg 39%
    14:00 +21°C° 0 mm 2 m/S 762 mmHg 38%
    15:00 +21°C° 0 mm 3 m/S 762 mmHg 37%
    16:00 +22°C° 0 mm 3 m/S 761 mmHg 36%
    17:00 +20°C° 0 mm 3 m/S 761 mmHg 40%
    18:00 +19°C° 0 mm 4 m/S 761 mmHg 44%
    19:00 +18°C° 0 mm 4 m/S 760 mmHg 49%
    20:00 +17°C° 0 mm 4 m/S 760 mmHg 50%
    21:00 +16°C° 0 mm 5 m/S 760 mmHg 51%
    22:00 +15°C° 0 mm 5 m/S 760 mmHg 52%
    23:00 +15°C° 0 mm 5 m/S 760 mmHg 52%

    20 Januar, Samstag

    Zeit Temperatur Niederschläge Wind Luftdruck Luftfeuchtigkeit
    00:00 +15°C° 0 mm 5 m/S 759 mmHg 51%
    01:00 +14°C° 0 mm 5 m/S 759 mmHg 51%
    02:00 +14°C° 0 mm 5 m/S 758 mmHg 49%
    03:00 +14°C° 0 mm 4 m/S 758 mmHg 47%
    04:00 +14°C° 0 mm 4 m/S 758 mmHg 45%
    05:00 +13°C° 0 mm 3 m/S 758 mmHg 46%
    06:00 +13°C° 0 mm 3 m/S 758 mmHg 47%
    07:00 +13°C° 0 mm 2 m/S 758 mmHg 48%
    08:00 +15°C° 0 mm 2 m/S 758 mmHg 43%
    09:00 +17°C° 0 mm 2 m/S 758 mmHg 38%
    10:00 +18°C° 0 mm 2 m/S 758 mmHg 34%
    11:00 +19°C° 0 mm 3 m/S 757 mmHg 32%
    12:00 +20°C° 0 mm 4 m/S 757 mmHg 30%
    13:00 +21°C° 0 mm 5 m/S 756 mmHg 28%
    14:00 +20°C° 0 mm 7 m/S 756 mmHg 37%
    15:00 +20°C° 0 mm 8 m/S 756 mmHg 46%
    16:00 +18°C° 0 mm 9 m/S 756 mmHg 54%
    17:00 +17°C° 0,5 mm 10 m/S 757 mmHg 62%
    18:00 +16°C° 0,5 mm 10 m/S 758 mmHg 70%
    19:00 +14°C° 0,5 mm 11 m/S 758 mmHg 78%
    20:00 +14°C° 0,8 mm 12 m/S 759 mmHg 75%
    21:00 +14°C° 0,8 mm 12 m/S 759 mmHg 72%
    22:00 +14°C° 0,8 mm 13 m/S 760 mmHg 69%
    23:00 +14°C° 0,1 mm 12 m/S 760 mmHg 69%

    21 Januar, Sonntag

    Zeit Temperatur Niederschläge Wind Luftdruck Luftfeuchtigkeit
    00:00 +13°C° 0,1 mm 11 m/S 760 mmHg 68%
    01:00 +13°C° 0,1 mm 10 m/S 761 mmHg 68%
    02:00 +13°C° 0 mm 10 m/S 761 mmHg 69%
    03:00 +13°C° 0 mm 10 m/S 761 mmHg 70%
    04:00 +12°C° 0 mm 10 m/S 761 mmHg 72%
    05:00 +12°C° 0 mm 10 m/S 762 mmHg 73%
    06:00 +12°C° 0 mm 9 m/S 762 mmHg 74%
    07:00 +11°C° 0 mm 9 m/S 762 mmHg 75%
    08:00 +12°C° 0 mm 10 m/S 762 mmHg 70%
    09:00 +13°C° 0 mm 10 m/S 763 mmHg 66%
    10:00 +13°C° 0 mm 11 m/S 763 mmHg 61%
    11:00 +14°C° 0 mm 12 m/S 762 mmHg 55%
    12:00 +15°C° 0 mm 13 m/S 762 mmHg 49%
    13:00 +17°C° 0 mm 13 m/S 762 mmHg 43%
    14:00 +18°C° 0 mm 13 m/S 761 mmHg 44%
    15:00 +18°C° 0 mm 13 m/S 761 mmHg 46%
    16:00 +18°C° 0 mm 13 m/S 761 mmHg 47%
    17:00 +17°C° 0,1 mm 13 m/S 761 mmHg 54%
    18:00 +17°C° 0,1 mm 13 m/S 762 mmHg 60%
    19:00 +15°C° 0,1 mm 13 m/S 762 mmHg 67%
    20:00 +15°C° 0 mm 13 m/S 763 mmHg 66%
    21:00 +14°C° 0 mm 13 m/S 763 mmHg 65%
    22:00 +14°C° 0 mm 12 m/S 764 mmHg 64%
    23:00 +13°C° 0 mm 12 m/S 764 mmHg 65%

    22 Januar, Montag

    Zeit Temperatur Niederschläge Wind Luftdruck Luftfeuchtigkeit
    00:00 +13°C° 0 mm 11 m/S 765 mmHg 66%
    01:00 +12°C° 0 mm 10 m/S 765 mmHg 68%
    02:00 +12°C° 0 mm 10 m/S 765 mmHg 68%
    03:00 +11°C° 0 mm 9 m/S 765 mmHg 68%
    04:00 +11°C° 0 mm 9 m/S 766 mmHg 68%
    05:00 +11°C° 0 mm 9 m/S 766 mmHg 69%
    06:00 +11°C° 0 mm 8 m/S 766 mmHg 70%
    07:00 +10°C° 0 mm 8 m/S 767 mmHg 71%
    08:00 +11°C° 0 mm 8 m/S 767 mmHg 67%
    09:00 +12°C° 0 mm 8 m/S 767 mmHg 63%
    10:00 +13°C° 0 mm 8 m/S 768 mmHg 59%
    11:00 +15°C° 0 mm 8 m/S 768 mmHg 58%
    12:00 +15°C° 0 mm 7 m/S 768 mmHg 58%
    13:00 +15°C° 0 mm 7 m/S 767 mmHg 58%
    14:00 +15°C° 0 mm 7 m/S 767 mmHg 59%
    15:00 +15°C° 0 mm 7 m/S 767 mmHg 60%
    16:00 +15°C° 0 mm 6 m/S 767 mmHg 61%
    17:00 +15°C° 0 mm 6 m/S 768 mmHg 64%
    18:00 +14°C° 0 mm 6 m/S 768 mmHg 67%
    19:00 +14°C° 0 mm 6 m/S 768 mmHg 70%
    20:00 +14°C° 0 mm 6 m/S 768 mmHg 73%
    21:00 +14°C° 0 mm 6 m/S 768 mmHg 75%
    22:00 +14°C° 0 mm 6 m/S 768 mmHg 77%
    23:00 +13°C° 0,1 mm 6 m/S 768 mmHg 79%
    Mehr zeigen